Location: Gumie?ce
(53.4190°N, 14.4829°E)
Time: 11:36:10
(UTC+00:00)

Daily predictions for brighter satellites

Satellite Brightness Start Highest point End
(mag) Time Altitude Azimuth Time Altitude Azimuth Time Altitude Azimuth
Cosmos 2082 Rocket 4.0 15:23:18 10° ESE 15:25:27 12° E 15:27:36 10° ENE
Cosmos 2333 Rocket 4.0 15:23:03 10° NNW 15:26:09 14° N 15:29:15 10° NE
ISS -3.2 15:23:27 10° W 15:26:49 60° S 15:30:10 10° ESE
Cosmos 1766 Rocket 4.1 15:23:23 10° NNW 15:27:43 64° W 15:32:02 10° S
Meteor 2-2 Rocket 4.5 15:22:22 10° S 15:28:18 62° E 15:34:11 10° NNE
SMAP 3.6 15:25:07 10° SE 15:29:25 38° ENE 15:33:44 10° N
DELTA 2 DEB (DPAF) 4.2 15:25:08 10° NNE 15:29:37 88° WNW 15:34:05 10° SSW
Cosmos 44 Rocket 4.2 15:25:24 10° NW 15:29:52 31° NNE 15:34:13 10° E
Cosmos 44 4.4 15:25:32 10° NW 15:30:14 49° SW 15:34:37 10° SSE
Cosmos 2278 4.4 15:26:20 10° NNW 15:31:31 34° NE 15:36:40 10° ESE
Meteor 2-19 Rocket 4.4 15:26:14 10° N 15:32:21 73° ENE 15:38:26 10° SSE
Iridium 2 3.7 15:29:15 10° N 15:33:02 84° W 15:36:47 10° S
NOAA 12 4.2 15:27:50 10° SSE 15:33:05 62° ENE 15:38:20 10° N
Cosmos 1939 Rocket 3.4 15:29:17 10° SE 15:33:06 38° ENE 15:36:53 10° N
Meteor PRIRODA 3.7 15:30:08 10° SSE 15:33:41 57° ENE 15:37:16 10° N
SL-16 R/B 4.1 15:32:50 10° WNW 15:36:49 19° NNW 15:40:48 10° NNE
Cosmos 2034 Rocket 4.2 15:33:09 10° SSE 15:39:02 49° E 15:44:57 10° NNE
Cosmos 1602 4.4 15:36:15 10° N 15:39:45 32° ENE 15:43:14 10° SE
USA 307 2.9 15:36:59 10° WSW 15:41:17 90° S 15:45:35 10° E
NOAA 11 4.3 15:37:21 10° SSE 15:42:47 82° WSW 15:48:16 10° NNW
COSMOS 2406 4.3 15:40:38 10° SSE 15:45:22 27° ESE 15:50:05 10° NE
ARGOS 4.1 15:42:00 10° ESE 15:46:17 25° NE 15:50:34 10° N
Cosmos 1833 Rocket 3.4 15:41:55 10° S 15:46:54 34° ESE 15:51:55 10° NE
COSMO-SKYMED 1 4.4 15:46:10 11° ENE 15:47:16 12° E 15:48:47 10° ESE
SL-08 R/B 3.3 15:44:49 10° NNE 15:49:34 67° ESE 15:54:11 10° S
Meteor 1-31 Rocket 4.4 15:47:08 10° SSW 15:50:42 38° W 15:54:19 10° NNW
ATLAS CENTAUR R/B 4.0 15:42:06 10° SSW 15:51:06 36° SE 15:55:00 12° E
Cosmos 2219 Rocket 4.0 15:48:42 10° NNW 15:51:42 14° NNE 15:54:43 10° NE
Cosmos 1818 4.1 15:46:49 10° NW 15:52:01 40° NNE 15:57:11 10° E
ADEOS 4.4 15:48:17 10° S 15:53:24 57° WSW 15:58:35 10° NNW
Cosmos 1782 4.0 15:52:15 10° SE 15:55:21 22° E 15:58:12 11° NE
Cosmos 1633 Rocket 4.2 15:52:04 10° NNE 15:55:29 22° ENE 15:58:54 10° ESE
Cosmos 468 Rocket 4.4 15:51:23 10° S 15:56:14 44° ESE 16:01:10 10° NE
Cosmos 1898 Rocket 3.5 15:51:01 10° NNW 15:56:20 86° ENE 16:01:34 10° SSE
ATLAS CENTAUR R/B 2.5 15:53:30 10° W 15:57:32 38° NNW 16:01:43 11° NE
Cosmos 2026 Rocket 4.0 15:55:11 10° N 16:01:14 54° ENE 16:07:10 10° SSE
COSMOS 2455 3.9 15:56:24 10° SSE 16:01:15 26° ESE 16:05:04 14° ENE
Cosmos 1408 Rocket 4.2 15:57:23 10° NNW 16:01:42 61° W 16:06:00 10° S
GEOS 3 Rocket 4.1 15:57:17 10° E 16:02:07 40° NNE 16:06:56 10° NW
Cosmos 1340 Rocket 3.1 15:58:12 10° NNW 16:02:17 76° W 16:06:21 10° S
Cosmos 1606 3.0 15:58:37 10° SSW 16:02:22 67° WNW 16:06:11 10° N
CZ-2C R/B 3.8 15:59:05 11° NE 16:02:34 20° E 16:06:17 10° SE
YAOGAN 1 4.1 16:02:26 15° ENE 16:02:58 15° NE 16:05:27 10° NNE
USA 308 2.9 15:59:31 10° W 16:03:47 84° N 16:07:12 16° E
CZ-4C R/B 3.6 16:00:14 10° N 16:04:10 66° WNW 16:07:50 10° SSW
Cosmos 2195 Rocket 4.4 15:58:39 10° N 16:04:47 65° ENE 16:10:56 10° SSE
MOS 1 Rocket 4.3 15:59:58 10° N 16:04:55 50° WNW 16:09:32 10° SW
PAYLOAD B 4.4 15:59:35 10° SE 16:05:00 51° ENE 16:10:25 10° N
ERBS 2.3 16:03:07 10° WSW 16:06:19 65° NNW 16:08:26 19° ENE
CZ-2D R/B 3.6 16:03:32 10° SE 16:07:08 40° ENE 16:10:45 10° N
Cosmos 2360 4.3 16:01:34 10° NNW 16:07:21 86° WSW 16:13:05 10° SSE
CZ-2C R/B 3.3 16:02:31 10° S 16:07:22 68° WSW 16:12:08 10° NNW
CZ-4B R/B 3.5 16:02:54 10° SE 16:07:52 39° ENE 16:12:49 10° N
Cosmos 1500 3.5 16:06:05 10° N 16:09:40 41° ENE 16:13:13 10° SE
NOSS 2-1 (E) 3.8 16:07:03 10° WSW 16:10:09 42° NNW 16:12:51 15° NE
Cosmos 1743 Rocket 3.5 16:05:52 10° NNW 16:10:13 86° W 16:14:33 10° S
Meteor 1-20 Rocket 4.3 16:04:22 10° NNW 16:10:14 88° ENE 16:16:07 10° SSE
NOSS 2-2 (C) 4.1 16:06:38 10° NW 16:11:24 88° NE 16:18:07 10° SE
Lacrosse 5 rocket 1.2 16:08:09 10° WNW 16:11:57 62° NNE 16:14:59 17° E
Cosmos 1151 Rocket 4.3 16:09:56 10° SE 16:13:12 21° E 16:14:34 18° ENE
Okean O Rocket 2.3 16:12:17 10° SE 16:16:13 32° ENE 16:20:10 10° N
USA 267 3.5 16:13:43 16° ENE 16:19:03 60° SE 16:25:30 10° SW
Cosmos 1666 Rocket 3.9 16:17:17 10° N 16:21:32 40° ENE 16:25:43 10° SE
CZ-4 R/B 3.2 16:23:40 15° NNE 16:23:40 15° NNE 16:25:02 10° NNE
Cosmos 2360 Rocket 3.4 16:19:00 10° NNW 16:23:27 23° NNE 16:25:23 19° ENE
Cosmos 1809 Rocket 4.4 16:18:01 10° N 16:24:10 82° E 16:30:15 10° SSE
H-2A R/B 2.0 16:20:04 10° SSE 16:25:07 61° ENE 16:30:05 10° N
Cosmos 1763 Rocket 3.4 16:24:16 10° SSW 16:29:20 79° ESE 16:33:54 13° NNE
CZ-4B R/B 4.3 16:25:50 10° S 16:29:37 40° W 16:33:15 10° NNW
Meteor 2-21 Rocket 4.4 16:24:01 10° N 16:30:06 61° ENE 16:36:06 10° SSE
USA 305 2.8 16:26:09 10° W 16:30:24 82° N 16:32:46 26° E
COSMOS 2428 4.4 16:28:41 10° NNW 16:32:14 16° NNE 16:33:40 15° NE
Cosmos 1933 3.2 16:31:07 10° S 16:35:10 77° E 16:39:12 10° NNE
PSLV R/B 3.6 16:31:57 10° SSE 16:35:39 89° ENE 16:39:26 10° NNW
Cosmos 841 Rocket 3.8 16:30:56 10° S 16:35:49 45° ESE 16:38:47 22° NE
SKYMED 2 4.4 16:34:47 26° ENE 16:35:53 30° E 16:39:43 10° SSE
Cosmos 1937 Rocket 4.0 16:31:00 10° NNW 16:36:17 66° WSW 16:41:33 10° SSE
MOS 1-B 4.3 16:32:34 10° SSE 16:38:21 81° ENE 16:44:10 10° NNW
Cosmos 1125 Rocket 4.0 16:34:19 10° NNW 16:39:11 36° NE 16:41:53 22° ESE
Cosmos 1666 2.7 16:35:33 10° N 16:39:11 48° ENE 16:42:47 10° SSE
SeaSat 1 4.1 16:36:03 10° NNE 16:40:07 26° NW 16:44:11 10° W
SL-24 R/B - RUBIN 2 4.1 16:37:50 10° NW 16:42:24 61° SW 16:46:42 10° SSE
NOSS 3-4 (A) 4.4 16:37:15 10° WNW 16:43:06 37° N 16:46:32 24° ENE
NOSS 3-4 (C) 4.4 16:37:21 10° WNW 16:43:12 37° N 16:46:37 24° ENE
Cosmos 2322 Rocket 2.8 16:38:35 10° NNW 16:43:49 35° NE 16:45:58 27° E
Cosmos 1697 Rocket 3.8 16:40:17 10° NW 16:45:37 46° WSW 16:50:57 10° S
ATLAS 2AS CENTAUR R/B 3.7 16:38:38 10° WNW 16:45:45 39° N 16:50:01 21° NE
Cosmos 372 Rocket 4.1 16:42:18 10° NNW 16:47:33 78° WSW 16:52:47 10° SSE
Sich 1 3.2 16:44:12 10° NNW 16:48:29 71° W 16:52:46 10° S
Cosmos 1980 Rocket 2.4 16:44:27 10° NW 16:50:08 74° WSW 16:55:45 10° SSE
Cosmos 1805 Rocket 4.3 16:46:11 10° NNW 16:50:26 55° W 16:54:41 10° S
Meteor 1-14 Rocket 4.2 16:45:15 10° NNW 16:51:05 77° ENE 16:57:00 10° SSE
Cosmos 2369 4.3 16:46:20 10° NW 16:51:59 60° WSW 16:57:35 10° SSE
Cosmos 2221 4.3 16:49:56 10° SW 16:53:44 30° WNW 16:57:35 10° N
USA 234 4.3 16:49:05 10° SSE 16:55:18 45° SW 17:01:32 10° WNW
Meteor 1-5 Rocket 4.2 16:50:01 10° NNW 16:56:02 77° ENE 17:01:59 10° SSE
CZ-4C R/B 3.0 16:50:04 10° NW 16:57:02 81° SW 17:05:18 10° SE
SL-08 RB Rocket 3.8 16:54:14 10° SE 16:58:44 52° ENE 17:03:11 10° N
SL-16 R/B 2.3 16:56:09 10° NNW 17:01:43 52° NE 17:04:15 30° ESE
Cosmos 1812 2.6 16:58:21 10° S 17:02:09 60° E 17:02:43 53° NE
USA 306 2.8 16:58:14 10° W 17:02:31 85° N 17:03:35 50° E
MOS 1-B Rocket 3.9 16:57:09 10° NNE 17:02:57 69° ESE 17:09:28 10° S
ISS -1.9 17:00:21 10° W 17:03:18 27° SSW 17:04:58 18° SSE
Cosmos 2237 Rocket 4.1 17:01:28 10° NNW 17:04:30 14° NNE 17:05:11 14° NNE
deb Chang Zheng 4 3.5 17:01:37 10° SSE 17:05:56 87° WSW 17:10:17 10° NNW
Cosmos 2082 Rocket 2.2 17:02:49 10° SSW 17:08:24 62° ESE 17:10:43 35° NE
Cosmos 44 Rocket 3.2 17:07:00 10° NW 17:12:01 90° SW 17:14:23 31° SE
Cosmos 2333 Rocket 3.3 17:07:43 10° NNW 17:12:25 26° NNE 17:12:25 26° NNE
Meteor 2-16 Rocket 4.5 17:06:52 10° NNW 17:13:00 84° W 17:19:08 10° S
Cosmos 2278 4.1 17:10:25 10° NW 17:16:06 66° WSW 17:21:43 10° SSE
Cosmos 2142 Rocket 4.4 17:14:12 10° S 17:20:22 84° E 17:26:39 10° NNE
USA 307 2.7 17:16:58 10° W 17:21:17 89° N 17:21:38 75° E
H-2A R/B 4.2 17:25:03 19° N 17:25:03 19° N 17:26:21 10° N
SL-16 R/B 4.2 17:20:39 10° NNW 17:23:22 13° N 17:24:24 13° NNE
Cosmos 540 Rocket 3.7 17:18:17 10° SW 17:23:22 68° WNW 17:26:07 27° NNE
COSMO-SKYMED 1 2.4 17:23:23 59° NNE 17:24:11 79° ESE 17:28:31 10° SSW
Cosmos 2298 Rocket 3.9 17:20:40 10° NNW 17:26:02 81° ENE 17:28:51 29° SSE
ARGOS 3.3 17:20:40 10° S 17:26:05 74° WSW 17:31:31 10° NNW
Cosmos 2279 Rocket 3.9 17:21:45 10° S 17:27:58 89° E 17:34:13 10° N
Cosmos 1570 Rocket 3.9 17:22:49 10° S 17:27:59 64° ESE 17:28:36 59° ENE
Cosmos 2266 Rocket 3.9 17:22:00 10° N 17:28:24 74° ENE 17:34:49 10° SSE
COSMOS 2406 3.4 17:23:30 10° SW 17:29:14 69° NW 17:32:09 30° NNE
Cosmos 1833 Rocket 3.2 17:25:05 10° SW 17:30:37 56° NW 17:33:42 26° NNE
Cosmos 1782 3.9 17:27:35 10° SW 17:31:24 43° WNW 17:33:48 20° N
Helios 1B 4.4 17:32:06 71° NNE 17:32:34 90° NW 17:36:54 10° SSW
ATLAS 5 CENTAUR R/B 2.1 17:25:03 10° NW 17:32:39 69° SW 17:33:08 60° S
Cosmos 1814 Rocket 3.8 17:27:37 10° SSW 17:32:50 77° ESE 17:33:45 60° NE
Cosmos 1633 Rocket 3.7 17:29:21 10° NNW 17:33:37 55° W 17:37:54 10° S
Cosmos 1818 3.9 17:30:29 10° NW 17:35:56 66° SW 17:38:50 28° SSE
NOAA 15 4.4 17:30:51 10° SSE 17:36:08 82° ENE 17:41:27 10° NNW
Meteor 2-15 Rocket 4.4 17:31:11 10° S 17:37:08 56° E 17:37:33 55° ENE
ATLAS CENTAUR R/B 3.4 17:34:06 10° WNW 17:37:33 21° N 17:37:49 21° N
Cosmos 2219 Rocket 3.4 17:32:45 10° NNW 17:36:28 27° NNE 17:36:28 27° NNE
YAOGAN 1 3.1 17:39:35 49° N 17:39:35 49° N 17:42:48 10° NNW
GEOS 3 Rocket 3.7 17:37:58 39° SSE 17:39:58 75° SW 17:45:11 10° NW
SL-19 R/B 4.5 17:35:46 20° NNE 17:40:14 88° WNW 17:46:48 10° SSW
ERBS 4.3 17:39:27 10° WNW 17:41:01 24° NW 17:41:01 24° NW
Meteor 2-6 Rocket 4.1 17:37:09 10° S 17:42:53 86° ESE 17:45:14 37° NNE
CZ-2C R/B 2.6 17:40:35 27° N 17:43:31 77° WNW 17:48:40 10° SSW
USA 308 3.1 17:39:30 10° WNW 17:43:13 67° W 17:43:13 67° W
COSMOS 2455 2.8 17:40:34 10° SW 17:46:37 81° NW 17:48:14 51° NNE
CZ-4B R/B 4.3 17:43:20 10° S 17:48:27 42° W 17:53:31 10° NNW
Cosmos 1151 Rocket 3.7 17:46:09 10° SSW 17:50:24 53° WNW 17:51:27 42° NNW
Lacrosse 5 rocket 2.2 17:47:14 10° WNW 17:50:36 44° WSW 17:50:36 44° WSW
Okean O Rocket 2.9 17:48:17 10° SSW 17:52:29 40° W 17:56:43 10° NNW
IRS-1C Rocket 4.2 17:54:34 65° N 17:54:34 65° N 17:59:07 10° NNW
CZ-4 R/B 3.5 17:59:39 19° NNW 17:59:39 19° NNW 18:00:51 10° NNW
Cosmos 2237 4.1 17:52:05 10° NNW 17:57:31 75° NNE 17:57:31 75° NNE
Meteor 2-15 4.4 17:54:12 10° SSW 18:00:19 85° W 18:03:28 31° N
Meteor 1-11 Rocket 3.8 17:56:04 10° NNW 18:01:39 75° W 18:05:45 20° S
Cosmos 2208 Rocket 4.1 17:56:37 10° SSW 18:01:39 78° SSW 18:01:39 78° SSW
USA 267 3.2 18:01:04 60° NE 18:02:17 77° NNW 18:08:49 10° W
Cosmos 1470 Rocket 4.5 17:58:23 10° NNW 18:02:40 48° W 18:06:58 10° SSW
Cosmos 2150 Rocket 4.4 17:58:17 10° NNW 18:03:23 59° WSW 18:04:48 43° SSW
Cosmos 1655 Rocket 4.3 17:58:20 10° NNW 18:04:41 66° W 18:10:58 10° S
Meteor 1-10 Rocket 4.1 17:59:00 10° SSW 18:04:47 87° WNW 18:04:53 86° NNW
H-2A R/B 4.2 18:00:47 10° SW 18:04:56 24° W 18:09:02 10° NW
Cosmos 1328 Rocket 4.5 18:03:38 10° SSW 18:07:30 48° W 18:07:30 48° W
Cosmos 2360 Rocket 2.6 18:02:47 10° NNW 18:07:10 52° N 18:07:10 52° N
USA 305 4.3 18:06:03 10° WNW 18:08:46 37° W 18:08:46 37° W
COSMOS 2428 4.2 18:12:52 10° NNW 18:15:41 26° N 18:15:41 26° N
Cosmos 1125 Rocket 4.4 18:16:24 10° NW 18:21:25 47° WSW 18:22:14 43° SW
ATLAS CENTAUR R/B 3.4 18:16:01 10° WSW 18:20:43 40° W 18:20:43 40° W
Cosmos 2322 Rocket 2.6 18:22:36 10° NW 18:27:49 60° W 18:27:49 60° W
NOSS 3-4 (A) 4.0 18:28:30 10° NW 18:33:59 57° N 18:33:59 57° N
NOSS 3-4 (C) 4.0 18:28:36 10° NW 18:34:04 56° N 18:34:04 56° N
ATLAS 2AS CENTAUR R/B 3.4 18:31:06 10° NW 18:37:27 44° N 18:37:27 44° N
SL-16 R/B 3.4 18:40:32 10° NW 18:45:42 37° WSW 18:46:11 36° WSW
Cosmos 2237 Rocket 4.4 18:45:35 10° NNW 18:47:00 16° NNW 18:47:00 16° NNW
Cosmos 2082 Rocket 3.5 18:47:41 10° WSW 18:52:36 35° NW 18:52:36 35° NW
Cosmos 2333 Rocket 3.8 18:51:50 10° NNW 18:54:26 28° NNW 18:54:26 28° NNW
Cosmos 2219 Rocket 4.4 19:16:33 10° NNW 19:18:11 20° NW 19:18:11 20° NW
